Find Feng Yun 2A

NORAD ID: 24834 Int'l Des: 1997-029 Owner: NSMC Country: CN operational
HEO

实时位置

正在加载3D地球...

关于 Feng Yun 2A

正在加载描述...

即将过境

Passes for default location (London). Set your location on the main map for personalized predictions.

高度历史

Loading altitude history...

两行轨道根数

1 24834U 97029A 26106.27878823 -.00000136 00000-0 00000+0 0 9998
2 24834 15.6230 6.5333 0104148 237.1790 350.8077 0.96050955102807
Epoch: Apr 16, 2026 • Age: 28 hours

当前状态

高度 36650.9 km
速度 3.06 km/s
星下点 -15.60°S, 87.22°W
发射日期 Jun 10, 1997
运行时间 28.8 years
类型 other

技术详情

分类 Payload
质量 651.00 kg
干质量 600.00 kg
总质量 651.00 kg
长度 3.00 m
直径 2.10 m
跨度 3.00 m
形状 Cyl + Ant
制造商 SISE
平台类型 FY-2
阶段状态 In Orbit
所有者/国家 NSMC/CN

Most Searched